Showing default

CONNECTA IOT-6, 62709

Orbit data source: Space-Track

CONNECTA IOT-6, 62709 is a payload satellite owned by Plan-S (TR) in SSO that was launched on Tue, 14 Jan 2025 UTC via an FALCON 9 launch vehicle from the Air Force Western Test Range (AFWTR). Payload-class satellites include a variety of spacecraft equipped with specific instruments for various scientific and technological missions. These include communications satellites like Starlink; space stations such as the ISS; scientific satellites like the Hubble; Earth observation satellites from companies like Planet Labs, Umbra, and HawkEye 360; GPS; miniature CubeSats for education and research; and military/defense satellites.

Loading next visibility...
Identifier
62709, 2025-009DE
Orbit
SSO
Country
Flag of TRTR / TURK
Related business
Manufacturer
Plan-S
Mission
Operational Commercial Communications
Bus & Motor
CUBESAT 6U, Unknown motor
Mass
10 kg wet, 10 kg dry
Launch date (UTC)
2025-01-14 (1 year ago)
Launch vehicle
FALCON 9
Launch site
Air Force Western Test Range (AFWTR)
Object type
Payload
Rocket body
Debris
Shape & HBR
Box, 2.2 m
Radar Cross Section
0.080 m², Medium (>0.1 m² and < 1m²)

Expand to show TLE details & history
Last TLE update: 9 hours ago

TLE from 9 hours ago
0 CONNECTA IOT-6
1 62709U 25009DE  26171.47630977  .00000613  00000-0  62414-4 0  9991
2 62709  97.7028 249.7825 0002927 110.4543 249.6991 14.94216100 77859
Epoch: 2026-06-20T11:25Z
TLE epoch observation values (Epoch: 2026-06-20T11:25:53.164Z)
Latitude
-0.00007°
Longitude
169.62061°
Altitude
588.561 km
Speed
7.565 km/s
True Right ascension
16h 39m 07s
True Declination
0° 00' 00"
Sunlit
Object was in full shadow at epoch
Visualization orbit readout
Latitude
Unknown
Longitude
Unknown
Altitude
Unknown
Speed
Unknown
Apparent Right ascension
Unknown
Apparent Declination
Unknown
Sunlit
N/A
Visualization observer readout
Local Sidereal Time
07:20:14
Azimuth
Unknown
Elevation
Unknown
Doppler factor
Unknown
Orbital elements
Apogee altitude
583.857 km
Perigee altitude
579.783 km
Semi-major axis
6,959.957 km
Eccentricity
0.00029
Inclination
97.7028°
RAAN
249.7825°
Arg. of periapsis
110.4543°
True anomaly
249.66765°
Mean anomaly
249.6991°
Eccentric anomaly
249.68337°
Mean motion
3.73795 °/min
Orbital period
96.31 mins
BSTAR
0.000062414
Loading maneuver chart data...
Computing Atmospheric mass density...
Loading historical data...
Loading historical data...
Loading historical data...
Loading historical data...
Loading historical data...
Loading historical data...
Loading historical data...

Documentation

Showing up to 5 results
|